Location: Roland
(31.1349°N, 85.4372°W)
Time: 22:24:16
(UTC+00:00)

Tiros 1 - Pass Details

Date: 24 April 2021
Orbit: 630 x 664 km, 48.4° (Epoch: 13 May)

Event Time Altitude Azimuth Distance (km) Brightness Sun altitude
Rises 12:51:58 0° 243° (WSW) 2,951 10.0 22.0°
Reaches altitude 10° 12:54:23 10° 250° (WSW) 2,037 9.2 22.5°
Maximum altitude 12:58:54 47° 324° (NW) 853 7.8 23.5°
Drops below altitude 10° 13:03:24 10° 38° (NE) 2,022 10.4 24.5°
Sets 13:05:47 0° 45° (NE) 2,928 11.2 25.0°
